Regional Weather Roundup
Issued by NWS

Home | Current Version | Previous Version | Graphics & Text | Print | Product List | Glossary On
Versions: 1 2 3 4 5 6 7 8 9 10 11 12 13 14 15 16 17 18 19 20 21 22 23 24 25 26 27 28 29 30 31 32 33 34 35 36 37 38 39 40 41 42 43 44 45 46 47 48 49 50
000
ASUS43 KBIS 241159
RWRND

NORTH DAKOTA REGIONAL WEATHER ROUNDUP
NATIONAL WEATHER SERVICE BISMARCK ND
700 AM CDT THU APR 24 2014

NOTE: "FAIR" INDICATES FEW OR NO CLOUDS BELOW 12,000 FEET WITH NO
SIGNIFICANT WEATHER AND/OR OBSTRUCTIONS TO VISIBILITY.


NDZ001>003-009>011-017-241300-
NORTHWEST NORTH DAKOTA

CITY           SKY/WX    TMP DP  RH WIND       PRES   REMARKS
WILLISTON      CLEAR     37  26  64 SW8       29.70R
6HR MIN TEMP:  34; 6HR MAX TEMP:  45;

MINOT          CLEAR     39  29  67 SW10      29.65F
$$

NDZ018>021-031>035-040>046-241300-
SOUTHWEST NORTH DAKOTA

CITY           SKY/WX    TMP DP  RH WIND       PRES   REMARKS
BISMARCK       CLEAR     36  29  75 NW6       29.73S
6HR MIN TEMP:  35; 6HR MAX TEMP:  40;

GARRISON         N/A     33  28  81 W8        29.69S
6HR MIN TEMP:  33; 6HR MAX TEMP:  37;

HETTINGER ARPT CLEAR     28  21  75 NW9       29.79S WCI  19
$$

NDZ004>008-012>016-024-026-027-054-241300-
NORTHEAST NORTH DAKOTA

CITY           SKY/WX    TMP DP  RH WIND       PRES   REMARKS
GRAND FORKS    CLOUDY    39  38  96 SE10      29.77S
DEVILS LAKE    CLOUDY    37  34  87 SE6       29.71F VSB 1/4
$$

NDZ022-023-025-028>030-036>039-047>053-241300-
SOUTHEAST NORTH DAKOTA

CITY           SKY/WX    TMP DP  RH WIND       PRES   REMARKS
FARGO          CLOUDY    42  38  85 S7        29.77R
6HR MIN TEMP:  42; 6HR MAX TEMP:  42; 6HR PCP:  0.01;

$$




USA.gov is the U.S. government's official web portal to all federal, state and local government web resources and services.